Deptford, New Jersey, United States
Lat: 39.83N, Lon: 75.13W
Wx Zone: NJZ017
Local Info
Past Weather Observations for Sunday, December 14, 2014

NOTE: This archive is for the closest National Weather Service station to Deptford. Information may differ from the station used for current weather conditions.

Click here for Long-term Archive

Time Weather Temperature Dewpoint Humidity Pressure Winds Precip Visibility
23:54
Overcast
45°F / 7°C 32°F / 0°C 61% 30.04 in
(1017 mb)
N 8.1 mph
(N 13 kph)
- 10SM
23:31
Overcast
45°F / 7°C 34°F / 1°C 66% 30.04 in
(1017 mb)
N 8.1 mph
(N 13 kph)
- 10SM
22:54
Overcast
45°F / 7°C 32°F / 0°C 61% 30.04 in
(1017 mb)
N 5.8 mph
(N 9 kph)
- 10SM
21:54
Overcast
45°F / 7°C 32°F / 0°C 61% 30.01 in
(1016 mb)
NNW 10.4 mph
(NNW 17 kph)
- 10SM
20:54
Overcast
45°F / 7°C 32°F / 0°C 61% 30.01 in
(1016 mb)
NNW 9.2 mph
(NNW 15 kph)
- 10SM
19:54
Overcast
46°F / 8°C 32°F / 0°C 57% 30.01 in
(1016 mb)
NNW 10.4 mph
(NNW 17 kph)
- 10SM
18:54
Mostly Cloudy
46°F / 8°C 32°F / 0°C 57% 29.98 in
(1015 mb)
NNW 16.1 mph
(NNW 26 kph)
- 10SM
17:54
Overcast
46°F / 8°C 32°F / 0°C 57% 29.98 in
(1015 mb)
NNW 12.7 mph
(NNW 20 kph)
- 10SM
16:54
Overcast
46°F / 8°C 34°F / 1°C 62% 29.95 in
(1014 mb)
NW 15 mph
(NW 24 kph)
- 10SM
15:54
Overcast
46°F / 8°C 34°F / 1°C 62% 29.95 in
(1014 mb)
NNW 12.7 mph
(NNW 20 kph)
- 10SM
14:54
Overcast
46°F / 8°C 34°F / 1°C 62% 29.92 in
(1013 mb)
NNW 17.3 mph
(NNW 28 kph)
- 10SM
14:33
Overcast
46°F / 8°C 34°F / 1°C 62% 29.92 in
(1013 mb)
NW 15 mph
(NW 24 kph)
- 10SM
13:54
Overcast
46°F / 8°C 34°F / 1°C 62% 29.92 in
(1013 mb)
NW 10.4 mph
(NW 17 kph)
- 10SM
13:13
Overcast
43°F / 6°C 34°F / 1°C 71% 29.92 in
(1013 mb)
W 10.4 mph
(W 17 kph)
- 10SM
12:54
Overcast
43°F / 6°C 34°F / 1°C 71% 29.95 in
(1014 mb)
SSW 10.4 mph
(SSW 17 kph)
- 10SM
11:54
Overcast
41°F / 5°C 34°F / 1°C 76% 29.95 in
(1014 mb)
SW 9.2 mph
(SW 15 kph)
- 10SM
10:54
Overcast
41°F / 5°C 32°F / 0°C 70% 29.98 in
(1015 mb)
SSE 6.9 mph
(SSE 11 kph)
- 10SM
09:54
Overcast
41°F / 5°C 30°F / -1°C 66% 29.98 in
(1015 mb)
Calm - 10SM
09:11
Overcast
41°F / 5°C 30°F / -1°C 66% 29.98 in
(1015 mb)
Calm - 10SM
08:54
Overcast
41°F / 5°C 30°F / -1°C 66% 29.98 in
(1015 mb)
Calm - 10SM
07:54
Overcast
39°F / 4°C 30°F / -1°C 70% 29.98 in
(1015 mb)
N 4.6 mph
(N 7 kph)
- 10SM
06:54
Overcast
39°F / 4°C 28°F / -2°C 65% 29.98 in
(1015 mb)
NNW 6.9 mph
(NNW 11 kph)
- 10SM
05:54
Overcast
39°F / 4°C 28°F / -2°C 65% 29.95 in
(1014 mb)
N 8.1 mph
(N 13 kph)
- 10SM
04:54
Overcast
37°F / 3°C 28°F / -2°C 70% 29.95 in
(1014 mb)
NNW 8.1 mph
(NNW 13 kph)
- 10SM
03:54
Overcast
37°F / 3°C 28°F / -2°C 70% 29.95 in
(1014 mb)
NNW 6.9 mph
(NNW 11 kph)
- 10SM
02:54
Overcast
37°F / 3°C 27°F / -3°C 65% 29.95 in
(1014 mb)
NW 8.1 mph
(NW 13 kph)
- 10SM
02:32
Mostly Cloudy
37°F / 3°C 27°F / -3°C 65% 29.98 in
(1015 mb)
NW 6.9 mph
(NW 11 kph)
- 10SM
02:22
Mostly Cloudy
37°F / 3°C 27°F / -3°C 65% 29.98 in
(1015 mb)
WNW 6.9 mph
(WNW 11 kph)
- 10SM
01:56
Mostly Cloudy
37°F / 3°C 27°F / -3°C 65% 29.98 in
(1015 mb)
WNW 10.4 mph
(WNW 17 kph)
- 9SM
01:54
Mostly Cloudy
37°F / 3°C 27°F / -3°C 65% 29.98 in
(1015 mb)
WNW 9.2 mph
(WNW 15 kph)
- 9SM
00:54
Overcast
39°F / 4°C 28°F / -2°C 65% 29.98 in
(1015 mb)
WNW 11.5 mph
(WNW 19 kph)
- 9SM
00:02
Overcast
39°F / 4°C 28°F / -2°C 65% 29.98 in
(1015 mb)
NW 8.1 mph
(NW 13 kph)
- 9SM
Time Weather Temperature Dewpoint Humidity Pressure Winds Precip Visibility


Weather for websites

WeatherForYou.com, LLC is not responsible for any damages or problems caused by this service. Current weather conditions are obtained from the closest station including government and personal stations which may have varying degrees of accuracy. Weather forecasts are derived from the NOAA NDFD. Like all things, this site belongs to Jesus Christ... He just trusts me to maintain it. If you have any questions or comments email webmaster@weatherforyou.com

Copyright © 2014, WeatherForYou.com LLC. All rights reserved.